| time (UTC) | temp F | wind direction | speed knots | gust knots | rain 1hr in | rain 24hr in | rain mn in | humidity % | barometer mb |
| 20260906051137 | 53 | 293 | 2.6 | 3.5 | 0.00 | 0.18 | 0.00 | 95 | 1005.2 |
| 20260906050137 | 53 | 293 | 2.6 | 3.5 | 0.00 | 0.18 | 0.00 | 95 | 1005.1 |
| 20260906045117 | 53 | 0 | 2.6 | 6.1 | 0.00 | 0.18 | 0.00 | 95 | 1004.9 |
| 20260906044137 | 53 | 0 | 3.5 | 4.3 | 0.00 | 0.18 | 0.00 | 95 | 1004.8 |
| 20260906043117 | 53 | 0 | 2.6 | 3.5 | 0.00 | 0.18 | 0.00 | 95 | 1004.7 |
| 20260906042117 | 53 | 0 | 2.6 | 2.6 | 0.00 | 0.18 | 0.00 | 95 | 1004.6 |
| 20260906041137 | 53 | 293 | 2.6 | 3.5 | 0.00 | 0.19 | 0.00 | 95 | 1004.3 |
| 20260906040118 | 53 | 0 | 3.5 | 4.3 | 0.00 | 0.19 | 0.00 | 95 | 1004.2 |
| 20260906035117 | 53 | 0 | 1.7 | 2.6 | 0.00 | 0.19 | 0.00 | 95 | 1004.1 |
| 20260906034117 | 52 | 0 | 2.6 | 3.5 | 0.00 | 0.20 | 0.00 | 95 | 1004.0 |
| 20260906033117 | 52 | 0 | 2.6 | 3.5 | 0.00 | 0.20 | 0.00 | 96 | 1003.9 |
| 20260906032117 | 52 | 0 | 2.6 | 3.5 | 0.00 | 0.20 | 0.00 | 95 | 1003.6 |
| 20260906031137 | 52 | 0 | 1.7 | 1.7 | 0.00 | 0.20 | 0.00 | 95 | 1003.4 |
| 20260906030117 | 51 | 270 | 0.9 | 1.7 | 0.00 | 0.20 | 0.00 | 95 | 1003.3 |
| 20260906025137 | 51 | 0 | 0.9 | 1.7 | 0.00 | 0.20 | 0.00 | 95 | 1003.2 |
| 20260906024117 | 51 | 248 | 0.9 | 1.7 | 0.00 | 0.20 | 0.00 | 95 | 1003.1 |
| 20260906023117 | 51 | 0 | 0.9 | 1.7 | 0.00 | 0.20 | 0.00 | 95 | 1003.1 |
| 20260906022117 | 51 | 0 | 0.9 | 1.7 | 0.00 | 0.21 | 0.00 | 95 | 1003.0 |
| 20260906021137 | 51 | 270 | 0.9 | 1.7 | 0.00 | 0.21 | 0.00 | 95 | 1002.9 |
| 20260906020117 | 51 | 270 | 1.7 | 1.7 | 0.00 | 0.21 | 0.00 | 95 | 1002.8 |
| 20260906015117 | 51 | 0 | 1.7 | 2.6 | 0.00 | 0.21 | 0.00 | 95 | 1002.8 |
| 20260906014117 | 50 | 270 | 1.7 | 1.7 | 0.00 | 0.21 | 0.00 | 95 | 1002.8 |
| 20260906013117 | 51 | 270 | 1.7 | 2.6 | 0.00 | 0.21 | 0.00 | 95 | 1002.6 |
| 20260906012117 | 50 | 0 | 1.7 | 2.6 | 0.00 | 0.22 | 0.00 | 95 | 1002.6 |
| 20260906011117 | 50 | 0 | 1.7 | 2.6 | 0.00 | 0.22 | 0.00 | 95 | 1002.6 |
| 20260906010117 | 51 | 270 | 0.9 | 1.7 | 0.00 | 0.22 | 0.00 | 95 | 1002.5 |
| 20260906005117 | 51 | 0 | 1.7 | 2.6 | 0.00 | 0.23 | 0.00 | 95 | 1002.4 |
| 20260906004137 | 51 | 270 | 0.9 | 1.7 | 0.00 | 0.24 | 0.00 | 95 | 1002.4 |
| 20260906003117 | 51 | 248 | 1.7 | 2.6 | 0.00 | 0.25 | 0.00 | 95 | 1002.3 |
| 20260906002117 | 51 | 270 | 1.7 | 2.6 | 0.00 | 0.26 | 0.00 | 94 | 1002.3 |
| 20260906001117 | 50 | 0 | 1.7 | 2.6 | 0.00 | 0.27 | 0.00 | 94 | 1002.2 |
| 20260906000137 | 51 | 248 | 1.7 | 2.6 | 0.00 | 0.28 | 0.00 | 94 | 1002.2 |
| 20260905235116 | 51 | 270 | 1.7 | 1.7 | 0.00 | 0.30 | 0.00 | 94 | 1002.2 |
| 20260905234117 | 51 | 0 | 1.7 | 2.6 | 0.00 | 0.31 | 0.00 | 94 | 1002.1 |
| 20260905233116 | 51 | 225 | 2.6 | 3.5 | 0.00 | 0.31 | 0.00 | 94 | 1002.2 |
| 20260905232116 | 51 | 248 | 1.7 | 1.7 | 0.00 | 0.31 | 0.00 | 94 | 1002.1 |
| 20260905231116 | 51 | 0 | 1.7 | 2.6 | 0.00 | 0.32 | 0.00 | 94 | 1002.1 |
| 20260905230116 | 52 | 0 | 0.9 | 1.7 | 0.00 | 0.32 | 0.00 | 94 | 1002.1 |
| 20260905225117 | 52 | 225 | 1.7 | 2.6 | 0.00 | 0.32 | 0.00 | 94 | 1002.0 |
| 20260905224137 | 52 | 225 | 0.9 | 1.7 | 0.00 | 0.33 | 0.00 | 94 | 1001.9 |
| 20260905223116 | 52 | 248 | 0.9 | 0.9 | 0.00 | 0.33 | 0.00 | 94 | 1001.9 |
| 20260905222136 | 52 | 248 | 0.9 | 1.7 | 0.00 | 0.34 | 0.00 | 93 | 1001.8 |
| 20260905221117 | 52 | 0.0 | 0.9 | 0.00 | 0.34 | 0.00 | 93 | 1001.8 | |
| 20260905220117 | 52 | 248 | 0.9 | 1.7 | 0.00 | 0.35 | 0.00 | 93 | 1001.7 |
| 20260905215116 | 53 | 0.0 | 0.9 | 0.00 | 0.35 | 0.00 | 93 | 1001.7 | |
| 20260905214116 | 53 | 0.0 | 0.0 | 0.00 | 0.35 | 0.00 | 93 | 1001.6 | |
| 20260905213116 | 53 | 293 | 0.9 | 1.7 | 0.00 | 0.35 | 0.00 | 93 | 1001.6 |
| 20260905212116 | 53 | 293 | 2.6 | 3.5 | 0.00 | 0.35 | 0.00 | 93 | 1001.6 |
| 20260905211116 | 54 | 293 | 2.6 | 3.5 | 0.00 | 0.35 | 0.00 | 93 | 1001.5 |
| 20260905210116 | 54 | 315 | 2.6 | 3.5 | 0.00 | 0.35 | 0.00 | 93 | 1001.5 |
| 20260905205117 | 54 | 293 | 2.6 | 2.6 | 0.00 | 0.35 | 0.35 | 93 | 1001.3 |
| 20260905204117 | 54 | 293 | 1.7 | 1.7 | 0.00 | 0.35 | 0.35 | 94 | 1001.4 |
| 20260905203117 | 54 | 293 | 1.7 | 2.6 | 0.00 | 0.35 | 0.35 | 94 | 1001.2 |
| 20260905202117 | 54 | 293 | 2.6 | 3.5 | 0.00 | 0.35 | 0.35 | 94 | 1001.2 |
| 20260905201117 | 54 | 0 | 3.5 | 4.3 | 0.00 | 0.35 | 0.35 | 95 | 1001.0 |
| 20260905200137 | 54 | 293 | 2.6 | 4.3 | 0.00 | 0.35 | 0.35 | 95 | 1000.9 |
| 20260905195117 | 54 | 293 | 1.7 | 1.7 | 0.00 | 0.35 | 0.35 | 95 | 1000.9 |
| 20260905194116 | 54 | 0 | 0.9 | 1.7 | 0.00 | 0.35 | 0.35 | 95 | 1000.8 |
| 20260905193117 | 54 | 293 | 0.9 | 1.7 | 0.00 | 0.35 | 0.35 | 95 | 1000.8 |
| 20260905192117 | 54 | 0.0 | 0.0 | 0.00 | 0.35 | 0.35 | 95 | 1000.8 | |
| 20260905191137 | 54 | 270 | 0.9 | 1.7 | 0.00 | 0.35 | 0.35 | 95 | 1000.7 |
| 20260905190116 | 54 | 0 | 0.9 | 0.9 | 0.00 | 0.35 | 0.35 | 95 | 1000.6 |
| 20260905185117 | 55 | 270 | 0.9 | 1.7 | 0.00 | 0.35 | 0.35 | 94 | 1000.6 |
| 20260905184117 | 54 | 270 | 0.9 | 1.7 | 0.00 | 0.35 | 0.35 | 94 | 1000.5 |
| 20260905183117 | 55 | 270 | 0.9 | 1.7 | 0.00 | 0.35 | 0.35 | 94 | 1000.5 |
| 20260905182117 | 55 | 225 | 1.7 | 2.6 | 0.00 | 0.35 | 0.35 | 94 | 1000.4 |
| 20260905181137 | 55 | 270 | 0.9 | 1.7 | 0.00 | 0.35 | 0.35 | 94 | 1000.5 |
| 20260905180117 | 55 | 270 | 0.9 | 0.9 | 0.00 | 0.35 | 0.35 | 94 | 1000.4 |
| 20260905175116 | 55 | 270 | 0.9 | 1.7 | 0.00 | 0.35 | 0.35 | 94 | 1000.4 |
| 20260905174137 | 55 | 270 | 0.9 | 0.9 | 0.00 | 0.36 | 0.35 | 93 | 1000.2 |
| 20260905173117 | 55 | 270 | 0.9 | 1.7 | 0.00 | 0.36 | 0.35 | 93 | 1000.3 |
| 20260905172116 | 56 | 225 | 1.7 | 2.6 | 0.00 | 0.36 | 0.35 | 93 | 1000.3 |
| 20260905171117 | 56 | 0.0 | 0.0 | 0.00 | 0.36 | 0.35 | 93 | 1000.1 | |
| 20260905170137 | 56 | 0.0 | 0.9 | 0.00 | 0.36 | 0.35 | 93 | 1000.0 | |
| 20260905165116 | 56 | 225 | 0.9 | 0.9 | 0.00 | 0.36 | 0.35 | 92 | 999.9 |
| 20260905164116 | 56 | 0.0 | 0.9 | 0.00 | 0.36 | 0.35 | 92 | 999.9 | |
| 20260905163116 | 57 | 0.0 | 0.0 | 0.00 | 0.36 | 0.35 | 92 | 999.7 | |
| 20260905162116 | 57 | 225 | 1.7 | 2.6 | 0.00 | 0.36 | 0.35 | 92 | 999.8 |
| 20260905161116 | 57 | 248 | 1.7 | 2.6 | 0.00 | 0.36 | 0.35 | 92 | 999.7 |
| 20260905160116 | 57 | 248 | 1.7 | 2.6 | 0.00 | 0.36 | 0.35 | 92 | 999.6 |
| 20260905155136 | 57 | 293 | 0.9 | 1.7 | 0.00 | 0.36 | 0.35 | 92 | 999.4 |
| 20260905154116 | 57 | 293 | 0.9 | 1.7 | 0.00 | 0.36 | 0.35 | 92 | 999.3 |
| 20260905153136 | 57 | 270 | 0.9 | 1.7 | 0.00 | 0.36 | 0.35 | 92 | 999.1 |
| 20260905152156 | 57 | 270 | 1.7 | 2.6 | 0.00 | 0.36 | 0.35 | 91 | 999.1 |
| 20260905151116 | 57 | 270 | 1.7 | 2.6 | 0.00 | 0.36 | 0.35 | 91 | 998.9 |
| 20260905150116 | 57 | 248 | 1.7 | 3.5 | 0.00 | 0.36 | 0.35 | 90 | 998.8 |
| 20260905145136 | 57 | 248 | 0.9 | 1.7 | 0.00 | 0.36 | 0.35 | 90 | 998.8 |
| 20260905144116 | 57 | 270 | 0.9 | 1.7 | 0.01 | 0.36 | 0.35 | 90 | 998.7 |
| 20260905143116 | 57 | 270 | 0.9 | 1.7 | 0.04 | 0.36 | 0.35 | 91 | 998.6 |
| 20260905142136 | 57 | 248 | 1.7 | 2.6 | 0.09 | 0.36 | 0.35 | 90 | 998.6 |
| 20260905141116 | 56 | 270 | 1.7 | 2.6 | 0.12 | 0.36 | 0.35 | 91 | 998.6 |
| 20260905140116 | 56 | 315 | 2.6 | 3.5 | 0.13 | 0.36 | 0.35 | 91 | 998.5 |
| 20260905135116 | 56 | 293 | 2.6 | 3.5 | 0.13 | 0.36 | 0.35 | 91 | 998.4 |
| 20260905134136 | 56 | 293 | 1.7 | 1.7 | 0.13 | 0.35 | 0.35 | 91 | 998.3 |
| 20260905133116 | 56 | 293 | 2.6 | 2.6 | 0.09 | 0.32 | 0.31 | 90 | 998.4 |
| 20260905132116 | 57 | 293 | 2.6 | 2.6 | 0.05 | 0.28 | 0.27 | 89 | 998.3 |
| 20260905131116 | 58 | 293 | 5.2 | 7.8 | 0.02 | 0.24 | 0.24 | 87 | 998.2 |
| 20260905130116 | 59 | 270 | 4.3 | 6.1 | 0.00 | 0.23 | 0.22 | 87 | 998.1 |
| 20260905125116 | 60 | 270 | 2.6 | 3.5 | 0.00 | 0.23 | 0.22 | 84 | 998.1 |
| 20260905124116 | 60 | 248 | 3.5 | 4.3 | 0.00 | 0.23 | 0.22 | 84 | 998.0 |
| 20260905123116 | 60 | 270 | 4.3 | 6.1 | 0.00 | 0.23 | 0.22 | 83 | 997.9 |
| 20260905122136 | 60 | 293 | 2.6 | 3.5 | 0.00 | 0.23 | 0.22 | 84 | 997.7 |
| 20260905121116 | 60 | 293 | 1.7 | 2.6 | 0.00 | 0.23 | 0.22 | 84 | 997.7 |
| 20260905120116 | 60 | 0.0 | 0.9 | 0.00 | 0.23 | 0.22 | 83 | 997.7 | |
| 20260905115116 | 61 | 315 | 0.9 | 1.7 | 0.00 | 0.23 | 0.22 | 82 | 997.6 |
| 20260905114116 | 61 | 293 | 3.5 | 6.1 | 0.00 | 0.23 | 0.22 | 82 | 997.5 |
| 20260905113136 | 61 | 315 | 3.5 | 6.1 | 0.00 | 0.23 | 0.22 | 84 | 997.5 |
| 20260905112116 | 60 | 293 | 3.5 | 5.2 | 0.00 | 0.23 | 0.22 | 86 | 997.5 |
| 20260905111116 | 59 | 293 | 4.3 | 5.2 | 0.00 | 0.23 | 0.22 | 86 | 997.4 |
| 20260905110116 | 59 | 293 | 3.5 | 4.3 | 0.00 | 0.23 | 0.22 | 88 | 997.2 |
| 20260905105156 | 59 | 270 | 3.5 | 3.5 | 0.00 | 0.24 | 0.22 | 89 | 997.1 |
| 20260905104136 | 58 | 270 | 4.3 | 5.2 | 0.00 | 0.24 | 0.22 | 90 | 997.1 |
| 20260905103116 | 58 | 248 | 4.3 | 5.2 | 0.00 | 0.24 | 0.22 | 91 | 997.1 |
| 20260905102116 | 58 | 293 | 3.5 | 4.3 | 0.00 | 0.24 | 0.22 | 93 | 996.9 |
| 20260905101116 | 57 | 293 | 3.5 | 4.3 | 0.00 | 0.24 | 0.22 | 93 | 996.9 |
| 20260905100116 | 57 | 270 | 3.5 | 5.2 | 0.01 | 0.24 | 0.22 | 94 | 996.8 |
| 20260905095136 | 57 | 270 | 2.6 | 3.5 | 0.01 | 0.24 | 0.22 | 94 | 996.8 |
| 20260905094136 | 56 | 270 | 2.6 | 3.5 | 0.01 | 0.24 | 0.22 | 94 | 996.7 |
| 20260905093116 | 56 | 248 | 2.6 | 3.5 | 0.01 | 0.24 | 0.22 | 94 | 996.6 |
| 20260905092135 | 55 | 270 | 2.6 | 3.5 | 0.01 | 0.25 | 0.22 | 94 | 996.6 |
| 20260905091116 | 55 | 270 | 1.7 | 1.7 | 0.01 | 0.29 | 0.22 | 94 | 996.5 |
| 20260905090115 | 55 | 0 | 1.7 | 2.6 | 0.01 | 0.37 | 0.21 | 94 | 996.5 |
| 20260905085135 | 55 | 270 | 2.6 | 3.5 | 0.03 | 0.43 | 0.21 | 94 | 996.3 |
| 20260905084136 | 55 | 248 | 1.7 | 2.6 | 0.04 | 0.50 | 0.21 | 94 | 996.2 |
| 20260905083115 | 56 | 225 | 1.7 | 2.6 | 0.04 | 0.62 | 0.21 | 94 | 996.1 |
| 20260905082115 | 56 | 0.0 | 0.0 | 0.04 | 0.67 | 0.21 | 94 | 996.1 | |
| 20260905081157 | 56 | 248 | 0.9 | 1.7 | 0.04 | 0.70 | 0.21 | 94 | 996.0 |
| 20260905080118 | 56 | 0 | 0.9 | 0.9 | 0.03 | 0.71 | 0.20 | 94 | 996.0 |
| 20260905075137 | 56 | 270 | 0.9 | 1.7 | 0.01 | 0.69 | 0.18 | 94 | 995.9 |
| 20260905074117 | 56 | 225 | 0.9 | 1.7 | 0.00 | 0.69 | 0.17 | 94 | 995.8 |
| 20260905073117 | 56 | 0.0 | 0.0 | 0.00 | 0.69 | 0.17 | 94 | 995.7 | |
| 20260905072117 | 56 | 0.0 | 1.7 | 0.00 | 0.69 | 0.17 | 95 | 995.7 | |
| 20260905071117 | 56 | 248 | 0.9 | 1.7 | 0.00 | 0.69 | 0.17 | 94 | 995.5 |
| 20260905070117 | 56 | 203 | 0.9 | 0.9 | 0.00 | 0.69 | 0.17 | 95 | 995.5 |
| 20260905065117 | 56 | 135 | 1.7 | 1.7 | 0.00 | 0.69 | 0.17 | 95 | 995.2 |
| 20260905064117 | 55 | 0.0 | 0.0 | 0.00 | 0.69 | 0.17 | 95 | 995.2 | |
| 20260905063117 | 55 | 0.0 | 0.0 | 0.00 | 0.69 | 0.17 | 95 | 995.1 | |
| 20260905062137 | 55 | 0.0 | 0.0 | 0.00 | 0.69 | 0.17 | 95 | 995.1 | |
| 20260905061117 | 55 | 0.0 | 0.0 | 0.00 | 0.69 | 0.17 | 95 | 995.0 | |
| 20260905060117 | 55 | 0.0 | 0.0 | 0.00 | 0.69 | 0.17 | 95 | 994.9 | |
| 20260905055117 | 55 | 0.0 | 0.0 | 0.00 | 0.69 | 0.17 | 95 | 994.9 | |
| 20260905054137 | 55 | 0.0 | 0.0 | 0.00 | 0.72 | 0.17 | 95 | 994.8 | |
| 20260905053117 | 55 | 0.0 | 0.0 | 0.00 | 0.72 | 0.17 | 95 | 994.7 | |
| 20260905052117 | 55 | 0.0 | 0.0 | 0.00 | 0.72 | 0.17 | 95 | 994.7 |